Regional Weather Roundup
Issued by NWS

Home | Current Version | Previous Version | Graphics & Text | Print | Product List | Glossary On
Versions: 1 2 3 4 5 6 7 8 9 10 11 12 13 14 15 16 17 18 19 20 21 22 23 24 25 26 27
000
ASUS45 KCYS 240310
RWRWY

WYOMING REGIONAL WEATHER ROUNDUP
NATIONAL WEATHER SERVICE CHEYENNE WY
900 PM MDT TUE MAY 23 2017

NOTE:  "FAIR" INDICATES FEW OR NO CLOUDS BELOW 12,000 FEET
WITH NO SIGNIFICANT WEATHER AND/OR OBSTRUCTIONS TO VISIBILITY.

WYZ001-240400-
YELLOWSTONE NATIONAL PARK

CITY           SKY/WX    TMP DP  RH WIND       PRES   REMARKS
LK YELLOWSTONE   N/A     46  37  71 CALM      30.16F
W YELLOWSTONE  NOT AVBL

$$
WYZ002>013-054>058-071-098>099-240400-
NORTHERN WYOMING

CITY           SKY/WX    TMP DP  RH WIND       PRES   REMARKS
JACKSON        FAIR      54  36  50 W6        30.09F
CODY           FAIR      60  36  40 S3        29.96F
GREYBULL       FAIR      64  32  30 S8        29.91F
WORLAND        FAIR      56  36  47 SE10      29.94F
SHERIDAN       FAIR      57  39  51 SE7       29.93F
BUFFALO        FAIR      53  39  59 S13       30.00F
GILLETTE       FAIR      49  44  83 S7        30.00F
HULETT         FAIR      52  36  54 SE8       30.02F
NEWCASTLE      FAIR      52  34  50 NE6       30.03F

$$
WYZ014>020-022>026-101>103-240400-
CENTRAL WYOMING

CITY           SKY/WX    TMP DP  RH WIND       PRES   REMARKS
BIG PINEY      FAIR      55  36  48 N14       30.14S
PINEDALE       FAIR      52  34  50 W8        30.13S
DUBOIS         FAIR      54  30  40 NW7       30.11S
LANDER         FAIR      55  33  43 SW7       30.01F
RIVERTON       FAIR      57  33  40 E6        30.03F
CASPER         FAIR      53  38  56 SE5       30.04F
DOUGLAS        FAIR      48  40  73 SE5       30.06F

$$
WYZ021-027>030-104>119-240400-
SOUTHERN WYOMING

CITY           SKY/WX    TMP DP  RH WIND       PRES   REMARKS
EVANSTON       FAIR      57  34  41 W8        30.18F
ROCK SPRINGS   FAIR      59  35  40 SW9       30.11F
DIXON            N/A     49  39  67 E5        30.16F
RAWLINS        FAIR      49  30  48 NE7       30.12F
SARATOGA       FAIR      52  25  35 CALM      30.15F
LARAMIE        FAIR      43  31  62 N6        30.14S
CHEYENNE       FAIR      48  32  53 N8        30.11S
TORRINGTON     FAIR      51  32  48 N10       30.03F

$$




USA.gov is the U.S. government's official web portal to all federal, state and local government web resources and services.